Weather History for KCMA - September, 2012

Change the Weather History Date:

Saturday, September 1, 2012

  Actual Average Record
Temperature  
Mean Temperature 65 °F 68 °F  
Max Temperature 76 °F 77 °F 100 °F (1955)
Min Temperature 53 °F 59 °F 50 °F (1970)
Degree Days  
Heating Degree Days 0 0  
Month to date heating degree days 0 0  
Since 1 July heating degree days 33 15  
Cooling Degree Days 0 3  
Month to date cooling degree days 0 3  
Year to date cooling degree days 175 215  
Growing Degree Days 14 (Base 50)    
Moisture  
Dew Point 54 °F    
Average Humidity 69    
Maximum Humidity 89    
Minimum Humidity 49    
Precipitation  
Precipitation 0.00 in 0.00 in 0.10 in (1967)
Month to date precipitation 0.00 0.00  
Year to date precipitation 5.71 11.04  
Since 1 July precipitation 0.03 0.06  
Sea Level Pressure  
Sea Level Pressure 29.94 in    
Wind  
Wind Speed 4 mph (West)    
Max Wind Speed 14 mph    
Max Gust Speed 17 mph    
Visibility 10 miles    
Events      
T = Trace of Precipitation, MM = Missing Value Source: NWS Daily Summary

Daily Weather History Graph

Daily Weather History Graph

Search for Another Location

Airport or City:

Trip Planner

Search our weather history database for the weather conditions in past years. The results will help you decide how hot, cold, wet, or windy it might be!

Date:

Astronomy

Sep. 01, 2012 Rise Set
Actual Time 6:30 AM PDT 7:21 PM PDT
Civil Twilight 6:04 AM PDT 7:47 PM PDT
Nautical Twilight 5:34 AM PDT 8:17 PM PDT
Astronomical Twilight 5:03 AM PDT 8:48 PM PDT
Moon 7:48 PM PDT (9/1) 7:36 AM PDT (9/1)
Length of Visible Light 13h 42m
Length of Day
12h 51m
Full, 98% of the Moon is Illuminated
Sep 1
Full
Sep 8
Last Quarter
Sep 15
New
Sep 22
First Quarter
Sep 29
Full

Hourly Weather History & Observations

Time (PDT) Temp. Dew Point Humidity Pressure Visibility Wind Dir Wind Speed Gust Speed Precip Events Conditions
12:55 AM 59.0 °F 55.9 °F 90% 29.93 in 9.0 mi ENE 3.5 mph - N/A   Clear
1:55 AM 55.9 °F 52.0 °F 87% 29.92 in 10.0 mi WNW 4.6 mph - N/A   Clear
2:55 AM 57.0 °F 53.1 °F 87% 29.92 in 10.0 mi Calm Calm - N/A   Clear
3:55 AM 57.0 °F 53.1 °F 87% 29.93 in 10.0 mi Calm Calm - N/A   Clear
4:55 AM 55.0 °F 51.1 °F 86% 29.93 in 10.0 mi ENE 3.5 mph - N/A   Clear
5:55 AM 54.0 °F 50.0 °F 86% 29.94 in 10.0 mi Calm Calm - N/A   Clear
6:55 AM 55.0 °F 51.1 °F 86% 29.95 in 10.0 mi ENE 3.5 mph - N/A   Clear
7:55 AM 60.1 °F 53.1 °F 78% 29.97 in 10.0 mi Calm Calm - N/A   Clear
8:55 AM 63.0 °F 54.0 °F 72% 29.97 in 10.0 mi Calm Calm - N/A   Clear
9:55 AM 68.0 °F 51.1 °F 55% 29.98 in 10.0 mi West 4.6 mph - N/A   Clear
11:55 AM 73.0 °F 59.0 °F 61% 29.96 in 10.0 mi WSW 8.1 mph - N/A   Clear
12:55 PM 73.0 °F 57.9 °F 59% 29.96 in 10.0 mi West 9.2 mph - N/A   Clear
1:55 PM 75.0 °F 57.0 °F 53% 29.95 in 10.0 mi WSW 8.1 mph - N/A   Clear
2:55 PM 75.9 °F 55.0 °F 48% 29.93 in 10.0 mi West 11.5 mph - N/A   Clear
3:55 PM 75.0 °F 55.9 °F 51% 29.92 in 10.0 mi WSW 9.2 mph - N/A   Clear
4:55 PM 73.9 °F 54.0 °F 50% 29.92 in 10.0 mi West 10.4 mph - N/A   Clear
5:55 PM 71.1 °F 53.1 °F 53% 29.93 in 10.0 mi WSW 5.8 mph - N/A   Clear
7:55 PM 64.9 °F 57.0 °F 75% 29.94 in 10.0 mi WSW 3.5 mph - N/A   Clear
8:55 PM 64.0 °F 57.0 °F 78% 29.94 in 10.0 mi Calm Calm - N/A   Clear
9:55 PM 62.1 °F 55.9 °F 80% 29.95 in 10.0 mi West 4.6 mph - N/A   Clear
10:55 PM 62.1 °F 55.0 °F 78% 29.95 in 10.0 mi WNW 3.5 mph - N/A   Clear
11:55 PM 61.0 °F 55.9 °F 83% 29.95 in 10.0 mi Calm Calm - N/A   Clear